Weather History for Sallisaw, OK

Change the Weather History Date:

Friday, June 28, 2013

  Actual Average Record
Temperature  
Mean Temperature 86 °F -  
Max Temperature 95 °F 90 °F 100 °F (1952)
Min Temperature 78 °F 67 °F 50 °F (1985)
Cooling Degree Days 22    
Growing Degree Days 36 (Base 50)    
Moisture  
Dew Point 67 °F    
Average Humidity 54    
Maximum Humidity 78    
Minimum Humidity 32    
Precipitation  
Precipitation 0.00 in - - ()
Sea Level Pressure  
Sea Level Pressure 29.88 in    
Wind  
Wind Speed 5 mph (NW)    
Max Wind Speed 15 mph    
Max Gust Speed 22 mph    
Visibility 10 miles    
Events      
Averages and records for this station are not official NWS values.
T = Trace of Precipitation, MM = Missing Value Source: NWS Daily Summary

Daily Weather History Graph

Daily Weather History Graph

Search for Another Location

Airport:

Trip Planner

Search our weather history database for the weather conditions in past years. The results will help you decide how hot, cold, wet, or windy it might be!

Date:

Astronomy

Jun. 28, 2013 Rise Set
Actual Time 6:06 AM CDT 8:38 PM CDT
Civil Twilight 5:36 AM CDT 9:08 PM CDT
Nautical Twilight 4:59 AM CDT 9:45 PM CDT
Astronomical Twilight 4:18 AM CDT 10:26 PM CDT
Moon No Moon Rise 12:01 PM CDT (6/28)
Length of Visible Light 15h 31m
Length of Day
14h 31m
Waning Gibbous, 66% of the Moon is Illuminated
Jun 28
Waning Gibbous
Jun 29
Last Quarter
Jul 8
New
Jul 15
First Quarter
Jul 22
Full

Hourly Weather History & Observations

Time (CDT) Temp. Heat Index Dew Point Humidity Pressure Visibility Wind Dir Wind Speed Gust Speed Precip Events Conditions
12:15 AM 86.0 °F 95.1 °F 75.2 °F 70% 29.92 in 10.0 mi WSW 4.6 mph - N/A   Scattered Clouds
12:35 AM 86.0 °F 95.1 °F 75.2 °F 70% 29.92 in 10.0 mi WSW 5.8 mph - N/A   Scattered Clouds
12:55 AM 84.2 °F 92.3 °F 75.2 °F 74% 29.89 in 10.0 mi SSW 6.9 mph - N/A   Clear
1:15 AM 86.0 °F 93.4 °F 73.4 °F 66% 29.91 in 10.0 mi West 6.9 mph - N/A   Clear
1:35 AM 86.0 °F 95.1 °F 75.2 °F 70% 29.90 in 10.0 mi WSW 4.6 mph - N/A   Clear
1:55 AM 82.4 °F 88.2 °F 73.4 °F 74% 29.88 in 10.0 mi SW 5.8 mph - N/A   Clear
2:15 AM 82.4 °F 88.2 °F 73.4 °F 74% 29.87 in 10.0 mi SW 6.9 mph - N/A   Clear
2:35 AM 82.4 °F 87.2 °F 71.6 °F 70% 29.85 in 10.0 mi SW 5.8 mph - N/A   Clear
2:55 AM 82.4 °F 86.3 °F 69.8 °F 66% 29.84 in 10.0 mi Calm Calm - N/A   Clear
3:15 AM 80.6 °F 84.6 °F 71.6 °F 74% 29.86 in 10.0 mi Calm Calm - N/A   Clear
3:35 AM 80.6 °F 83.9 °F 69.8 °F 70% 29.86 in 10.0 mi Calm Calm - N/A   Clear
3:55 AM 80.6 °F 84.6 °F 71.6 °F 74% 29.85 in 10.0 mi Calm Calm - N/A   Clear
4:15 AM 78.8 °F - 71.6 °F 78% 29.84 in 10.0 mi Calm Calm - N/A   Clear
4:35 AM 80.6 °F 84.6 °F 71.6 °F 74% 29.85 in 10.0 mi WNW 4.6 mph - N/A   Clear
4:55 AM 78.8 °F - 71.6 °F 78% 29.86 in 10.0 mi WNW 4.6 mph - N/A   Clear
5:15 AM 78.8 °F - 69.8 °F 74% 29.88 in 10.0 mi WNW 5.8 mph - N/A   Clear
5:35 AM 78.8 °F - 68.0 °F 69% 29.89 in 10.0 mi West 9.2 mph - N/A   Clear
5:55 AM 80.6 °F 82.3 °F 64.4 °F 58% 29.90 in 10.0 mi WNW 8.1 mph - N/A   Clear
6:15 AM 80.6 °F 81.8 °F 62.6 °F 54% 29.90 in 10.0 mi NNW 9.2 mph - N/A   Clear
6:35 AM 80.6 °F 81.8 °F 62.6 °F 54% 29.90 in 10.0 mi NW 5.8 mph - N/A   Clear
6:55 AM 78.8 °F - 64.4 °F 61% 29.90 in 10.0 mi Calm Calm - N/A   Clear
7:55 AM 80.6 °F 82.3 °F 64.4 °F 58% 29.92 in 10.0 mi NNW 8.1 mph - N/A   Clear
8:15 AM 80.6 °F 82.3 °F 64.4 °F 58% 29.91 in 10.0 mi North 6.9 mph - N/A   Clear
8:35 AM 82.4 °F 85.4 °F 68.0 °F 62% 29.91 in 10.0 mi North 5.8 mph - N/A   Clear
8:55 AM 84.2 °F 87.3 °F 68.0 °F 58% 29.90 in 10.0 mi Calm Calm - N/A   Clear
9:15 AM 86.0 °F 89.4 °F 68.0 °F 55% 29.90 in 10.0 mi North 5.8 mph - N/A   Clear
9:35 AM 86.0 °F 89.4 °F 68.0 °F 55% 29.90 in 10.0 mi Calm Calm - N/A   Clear
9:55 AM 87.8 °F 91.4 °F 68.0 °F 52% 29.90 in 10.0 mi NW 6.9 mph - N/A   Clear
10:15 AM 87.8 °F 91.4 °F 68.0 °F 52% 29.91 in 10.0 mi NNW 10.4 mph - N/A   Clear
10:35 AM 87.8 °F 92.6 °F 69.8 °F 55% 29.91 in 10.0 mi North 3.5 mph - N/A   Clear
10:55 AM 87.8 °F 92.6 °F 69.8 °F 55% 29.92 in 10.0 mi NNW 4.6 mph - N/A   Clear
11:15 AM 87.8 °F 93.8 °F 71.6 °F 58% 29.92 in 10.0 mi NNW 6.9 mph - N/A   Clear
11:35 AM 89.6 °F 94.7 °F 69.8 °F 52% 29.92 in 10.0 mi NNW 10.4 mph - N/A   Clear
11:55 AM 89.6 °F 94.7 °F 69.8 °F 52% 29.92 in 10.0 mi NNW 11.5 mph - N/A   Clear
12:15 PM 89.6 °F 94.7 °F 69.8 °F 52% 29.92 in 10.0 mi NNW 8.1 mph - N/A   Clear
12:35 PM 91.4 °F 95.4 °F 68.0 °F 46% 29.92 in 10.0 mi North 6.9 mph 19.6 mph N/A   Clear
12:55 PM 91.4 °F 95.4 °F 68.0 °F 46% 29.92 in 10.0 mi North 4.6 mph 18.4 mph N/A   Clear
1:15 PM 91.4 °F 95.4 °F 68.0 °F 46% 29.92 in 10.0 mi North 11.5 mph 16.1 mph N/A   Clear
1:35 PM 91.4 °F 95.4 °F 68.0 °F 46% 29.92 in 10.0 mi North 9.2 mph - N/A   Clear
1:55 PM 93.2 °F 94.1 °F 62.6 °F 36% 29.91 in 10.0 mi North 10.4 mph - N/A   Clear
2:15 PM 93.2 °F 93.3 °F 60.8 °F 34% 29.91 in 10.0 mi North 9.2 mph 17.3 mph N/A   Clear
2:35 PM 93.2 °F 94.1 °F 62.6 °F 36% 29.90 in 10.0 mi North 6.9 mph - N/A   Clear
2:55 PM 93.2 °F 94.1 °F 62.6 °F 36% 29.90 in 10.0 mi North 6.9 mph - N/A   Clear
3:15 PM 93.2 °F 94.1 °F 62.6 °F 36% 29.90 in 10.0 mi North 4.6 mph - N/A   Clear
3:35 PM 95.0 °F 96.0 °F 62.6 °F 34% 29.89 in 10.0 mi NNW 9.2 mph 17.3 mph N/A   Clear
3:55 PM 95.0 °F 95.2 °F 60.8 °F 32% 29.88 in 10.0 mi NNW 15.0 mph - N/A   Clear
4:15 PM 95.0 °F 95.2 °F 60.8 °F 32% 29.87 in 10.0 mi NNW 10.4 mph 19.6 mph N/A   Clear
4:35 PM 95.0 °F 95.2 °F 60.8 °F 32% 29.87 in 10.0 mi NNW 9.2 mph - N/A   Clear
4:55 PM 95.0 °F 95.2 °F 60.8 °F 32% 29.86 in 10.0 mi NNW 9.2 mph - N/A   Clear
5:15 PM 95.0 °F 95.2 °F 60.8 °F 32% 29.86 in 10.0 mi NW 8.1 mph - N/A   Clear
5:35 PM 93.2 °F 93.3 °F 60.8 °F 34% 29.86 in 10.0 mi North 12.7 mph 21.9 mph N/A   Clear
5:55 PM 91.4 °F 92.1 °F 62.6 °F 38% 29.86 in 10.0 mi North 6.9 mph - N/A   Scattered Clouds
6:15 PM 93.2 °F 93.3 °F 60.8 °F 34% 29.85 in 10.0 mi NNW 10.4 mph 18.4 mph N/A   Clear
6:35 PM 91.4 °F 91.4 °F 60.8 °F 36% 29.84 in 10.0 mi NNW 6.9 mph - N/A   Clear
6:55 PM 91.4 °F 92.1 °F 62.6 °F 38% 29.84 in 10.0 mi NW 8.1 mph - N/A   Clear
7:15 PM 91.4 °F 93.2 °F 64.4 °F 41% 29.84 in 10.0 mi NW 9.2 mph - N/A   Clear
7:35 PM 91.4 °F 93.2 °F 64.4 °F 41% 29.84 in 10.0 mi NW 4.6 mph - N/A   Clear
7:55 PM 89.6 °F 92.2 °F 66.2 °F 46% 29.84 in 10.0 mi NW 4.6 mph - N/A   Clear
8:15 PM 89.6 °F 92.2 °F 66.2 °F 46% 29.83 in 10.0 mi NW 3.5 mph - N/A   Clear
8:35 PM 87.8 °F 90.4 °F 66.2 °F 49% 29.83 in 10.0 mi NW 4.6 mph - N/A   Clear
8:55 PM 86.0 °F 89.4 °F 68.0 °F 55% 29.83 in 10.0 mi NW 3.5 mph - N/A   Clear
9:15 PM 86.0 °F 87.3 °F 64.4 °F 48% 29.83 in 10.0 mi WNW 3.5 mph - N/A   Clear
9:35 PM 82.4 °F 85.4 °F 68.0 °F 62% 29.83 in 10.0 mi Calm Calm - N/A   Clear
9:55 PM 82.4 °F 85.4 °F 68.0 °F 62% 29.83 in 10.0 mi Calm Calm - N/A   Clear
10:15 PM 80.6 °F 83.2 °F 68.0 °F 65% 29.84 in 10.0 mi Calm Calm - N/A   Clear
10:35 PM 82.4 °F 84.6 °F 66.2 °F 58% 29.84 in 10.0 mi Calm Calm - N/A   Clear
10:55 PM 82.4 °F 84.6 °F 66.2 °F 58% 29.84 in 10.0 mi North 3.5 mph - N/A   Clear
11:15 PM 80.6 °F 82.7 °F 66.2 °F 61% 29.85 in 10.0 mi Calm Calm - N/A   Clear
11:35 PM 80.6 °F 82.7 °F 66.2 °F 61% 29.85 in 10.0 mi Calm Calm - N/A   Scattered Clouds
11:55 PM 80.6 °F 82.3 °F 64.4 °F 58% 29.85 in 10.0 mi Calm Calm - N/A   Scattered Clouds